SCP
0 0 0 0 0 0 0 0 0 0 0 0 0 0 0 0 0 0 0 0 0 0 0 0 0 0 0 0 0 0 0 0 0 0 -0 -0 -0 -0 -0 -0 0 0 0 0
0 0 0 0 0 0 0 0 0 0 0 0 0 0 0 0 0 0 0 0 0 0 0 0 0 0 0 0 0 0 0 0 0 0 -0 -0 -0 -0 -0 0 0 0 0 0
0 0 0 0 0 0 0 0 0 0 0 0 0 0 0 0 0 0 0 0 0 0 0 0 0 0 0 0 0 0 0 0 0 0 -0 -0 -0 -0 -0 0 0 0 0 0
0 0 0 0 0 0 0 0 0 0 0 0 0 0 0 0 0 0 0 0 0 0 0 0 0 0 0 0 0 0 0 0 0 0 0 0 0 0 0 0 0 0 0 0
0 0 -0 -0 0 0 0 0 0 0 0 0 0 0 0 0 0 0 0 0 0 0 0 0 0 0 0 0 0 0 0 0 0 0 0 0 0 0 0 0 0 0 0 0
0 0 -0 -0 0 0 0 0 0 0 0 0 0 0 0 0 0 0 0 0 0 0 0 0 0 0 0 0 0 -0 -0 -0 0 0 0 0 0 0 0 0 0 0 0 0
0 0 -0 -0 -0 0 0 0 0 0 0 0 0 0 0 0 0 0 0 0 0 0 0 0 0 0 0 0 -0 -0 -0 -0 -0 0 0 0 0 0 0 0 0 0 0 0
0 0 0 0 0 0 0 0 0 0 0 0 0 0 0 0 0 0 -0 -0 -0 0 0 0 0 0 0 0 -0 -0 -0 -0 -0 0 0 0 0 0 0 0 0 0 0 0
0 0 0 0 0 0 0 0 0 0 0 0 0 0 0 0 0 0 -0 -0 -0 0 0 0 0 -0 -0 -0 -0 -0 -0 -0 0 0 0 0 0 0 0 0 0 0 0 0
0 0 0 0 0 0 0 0 -0 -0 -0 0 0 0 0 0 0 0 0 0 0 0 0 0 0 -0 -0 -0 0 0 0 0 0 0 0 0 0 0 0 0 0 0 0 0
0 0 0 0 0 0 0 0 0 0 0 0 0 0 0 0 0 0 0 0 0 0 0 0 0 0 0 0 0 0 0 0 0 0 0 0 0 0 0 0 0 0 0 0
0 0 0 0 0 0 -0 0 0 0 0 0 0 0 0 0 0 0 0 0 0 0 0 0 0 0 0 0 0 0 0 0 0 0 0 0 0 0 0 0 0 0 0 0
0 0 0 0 0 0 0 0 0 0 0 0 0 0 0 0 0 0 0 0 0 0 0 0 0 0 0 0 0 0 0 0 0 0 0 0 0 0 0 0 0 0 0 0
0 0 0 0 0 0 0 0 0 0 0 -0 0 0 0 0 0 0 0 0 0 0 0 0 0 0 0 0 0 0 0 0 0 0 0 0 0 0 0 0 0 0 0 0
0 0 0 0 0 0 0 0 0 0 -0 -0 0 0 0 0 0 0 0 0 0 0 0 0 0 0 0 0 0 0 0 0 0 0 0 0 0 0 0 0 0 0 0 0
0 0 0 0 0 0 0 0 0 -0 -0 -0 -0 -0 0 0 0 0 0 0 0 0 0 0 0 0 0 0 0 0 0 0 0 0 0 0 0 0 0 0 0 0 0 0
0 0 0 0 0 0 0 0 0 0 0 0 0 0 0 0 0 0 -0 0 0 0 0 0 0 0 0 0 0 0 0 0 0 0 0 0 0 0 0 0 0 0 0 0
0 0 0 0 0 0 0 0 0 0 0 0 0 0 0 0 0 0 -0 0 0 0 0 0 0 0 0 0 0 0 0 0 0 0 0 0 0 0 0 0 0 0 0 0
0 0 0 0 0 0 0 0 0 0 0 0 0 0 0 0 0 0 0 0 0 0 0 0 0 0 0 0 0 0 0 0 0 0 0 0 0 0 0 0 0 0 0 0
0 0 0 0 0 0 0 0 0 0 0 0 0 0 0 0 0 0 0 0 0 0 0 0 0 0 0 0 0 0 0 0 0 0 0 0 0 0 0 0 0 0 0 0
0 0 0 0 0 0 0 0 0 0 0 0 0 0 0 0 0 0 0 0 0 0 0 0 0 0 0 0 0 0 0 0 0 0 0 0 0 0 0 0 0 0 0 0
0 0 0 0 0 0 0 0 0 0 0 0 0 0 0 0 0 0 0 0 0 0 0 0 0 0 0 0 0 0 0 0 0 0 0 0 0 0 0 0 0 0 0 0
0 0 0 0 0 0 0 0 0 0 0 0 0 0 0 0 0 0 0 0 0 0 0 0 0 0 0 0 0 0 0 0 0 0 0 0 0 0 0 0 0 0 0 0
0 0 0 0 0 0 0 0 0 0 0 0 0 0 0 0 0 0 0 0 0 0 0 0 0 0 0 0 0 0 0 0 0 0 0 0 0 0 0 0 0 0 0 0
0 -0 -0 -0 0 0 0 0 0 0 0 0 0 0 0 0 0 0 0 0 0 0 0 0 0 0 0 0 0 0 -0 0 0 0 0 0 0 0 0 0 0 0 0 0
-0 -0 -0 0 0 0 0 0 0 0 0 0 0 0 0 0 0 0 0 0 0 0 0 0 0 0 0 0 0 0 -0 0 0 0 0 0 0 0 0 0 0 0 0 0
-0 -0 -0 0 0 0 -0 0 0 0 0 0 0 0 0 0 0 0 0 0 0 0 0 0 0 0 0 0 0 0 0 0 0 0 0 0 0 0 0 0 0 0 0 0
Wind_Speed
5 4 3 5 7 8 9 9 9 9 9 11 7 5 5 4 4 3 4 4 4 4 3 4 4 4 4 4 4 4 3 4 5 5 5 5 5 6 5 5 5 5 5 4
4 4 4 8 10 10 11 10 10 9 12 8 4 3 3 4 3 4 4 4 4 4 4 4 4 5 5 5 5 4 4 5 5 5 5 5 5 5 5 5 5 4 4 4
4 2 2 8 9 10 7 7 7 10 10 4 3 3 4 4 3 4 4 4 4 4 4 4 4 4 4 5 4 4 4 4 4 5 5 5 5 5 5 5 4 5 4 4
2 1 8 7 2 5 6 6 6 6 5 3 3 3 3 3 2 3 3 4 4 4 4 4 4 4 4 4 4 4 4 4 5 5 6 6 5 5 5 4 4 4 4 4
3 4 7 6 2 2 4 4 3 5 4 2 1 1 3 2 1 2 3 4 4 3 3 4 4 4 4 4 4 4 5 5 5 5 5 6 5 5 5 4 4 4 4 4
3 4 7 5 3 2 2 4 3 3 3 2 0 1 4 3 2 3 3 3 3 3 3 4 4 4 4 5 5 5 6 6 6 5 5 5 5 5 4 3 4 4 4 4
4 5 7 6 3 1 3 5 3 2 2 2 2 3 3 3 3 2 3 3 3 3 3 4 4 4 4 5 6 6 6 5 5 5 5 5 4 4 4 3 3 3 4 4
4 4 8 3 2 3 5 3 1 1 1 1 2 2 3 3 3 3 3 4 4 4 4 5 4 4 5 6 6 6 5 5 5 5 5 4 3 4 3 3 3 3 3 4
7 7 4 3 4 3 2 2 2 1 2 1 1 2 3 3 3 3 4 4 4 3 5 5 4 4 5 7 6 5 5 5 5 5 4 4 3 3 3 2 2 3 3 3
3 6 5 5 4 3 2 2 2 1 1 1 1 3 4 4 4 4 4 4 4 4 5 6 6 5 5 6 6 5 5 5 5 4 4 4 3 2 2 2 2 3 2 3
4 6 5 4 3 3 1 1 1 1 1 1 1 3 3 4 4 4 4 4 4 4 5 6 6 6 6 6 5 5 5 5 4 4 4 3 3 3 3 3 3 3 3 2
6 6 3 3 2 1 1 1 1 1 2 2 1 2 3 4 4 4 5 4 4 5 5 6 6 6 6 5 5 4 5 4 3 3 3 3 3 4 5 5 7 7 6 4
5 3 2 3 2 1 1 1 1 1 2 2 2 2 3 4 4 4 4 5 5 5 6 6 6 6 6 6 5 4 4 4 3 3 3 3 3 3 4 6 6 6 6 6
2 1 2 2 2 2 1 1 1 2 2 2 2 2 3 3 4 4 5 5 5 5 5 6 6 6 6 5 5 4 4 4 4 3 3 3 3 3 3 3 4 4 5 6
3 1 2 2 2 2 2 1 1 2 3 3 2 3 3 4 5 6 5 5 5 5 5 5 6 7 6 5 4 4 4 3 3 3 2 2 2 2 2 2 3 3 4 4
3 2 1 1 2 2 2 1 1 3 3 3 4 4 4 5 5 5 5 4 4 6 6 6 6 7 6 4 4 4 3 5 4 3 2 2 2 2 2 2 2 2 3 3
2 2 2 2 3 3 2 2 2 3 3 4 4 4 4 4 5 5 5 5 4 5 5 6 7 6 5 5 4 3 3 3 5 3 2 2 2 2 2 2 2 2 2 3
1 2 2 2 3 3 3 3 3 3 4 4 4 4 4 4 5 6 6 6 5 6 5 5 6 6 5 5 3 3 2 2 2 2 2 2 2 2 2 2 2 2 2 3
3 2 3 3 2 2 3 3 3 3 4 4 4 4 4 4 5 5 5 5 5 6 6 6 9 6 5 5 4 2 2 2 2 2 2 3 3 2 1 2 2 2 2 2
4 3 3 3 3 2 3 3 3 3 3 3 3 3 4 4 4 4 4 4 4 5 6 7 6 5 4 4 5 2 2 2 2 2 2 1 1 2 2 2 2 2 2 2
4 4 4 4 4 3 3 3 2 3 4 3 3 3 4 5 4 4 4 4 5 5 6 7 5 4 4 4 4 2 2 2 2 2 2 2 2 2 2 2 2 2 2 2
4 4 4 4 4 4 4 3 3 3 3 3 3 3 3 4 4 4 4 4 5 8 6 4 3 4 5 5 3 2 2 2 2 2 2 2 2 2 2 2 2 2 2 2
3 3 4 4 4 4 4 4 3 3 3 4 4 4 4 4 4 4 4 4 4 7 5 3 5 6 6 4 2 2 2 2 2 2 2 2 2 2 2 2 2 2 2 2
4 4 4 3 3 3 4 5 4 3 3 4 4 4 4 3 3 3 3 6 8 7 4 5 7 7 6 3 2 2 2 2 2 2 2 2 2 2 2 2 2 2 2 2
3 3 3 3 3 3 4 4 4 4 4 3 4 4 3 2 3 4 4 4 6 6 4 5 8 8 5 3 3 2 2 2 1 1 2 2 2 2 2 2 2 2 2 2
3 3 3 3 3 3 3 3 3 3 3 4 4 3 3 3 3 3 3 4 5 5 4 3 4 4 3 3 2 2 2 2 2 2 2 1 2 1 1 2 2 2 2 2
3 2 2 3 3 3 3 3 3 3 3 3 4 4 4 4 3 3 4 3 3 3 3 3 3 2 3 2 2 2 2 2 1 1 1 1 1 1 1 1 1 1 2 2
Wind_Direction
257 260 225 238 238 217 211 213 221 242 243 259 268 270 280 292 302 313 316 317 311 309 313 321 320 318 315 313 314 312 307 302 294 292 292 293 293 294 293 292 291 287 287 288
267 254 244 260 249 233 231 230 237 253 264 260 261 269 284 290 294 294 298 301 306 309 310 312 313 313 315 314 313 315 302 294 295 303 308 302 296 300 303 301 297 296 293 289
255 263 301 259 232 213 211 211 207 233 248 253 263 263 266 273 273 274 285 298 306 305 298 302 304 306 307 307 314 314 305 303 310 314 314 306 303 311 307 301 298 300 295 288
222 166 234 245 253 208 214 233 223 237 257 255 243 267 288 285 274 285 296 304 310 309 308 312 311 315 315 319 318 313 312 313 315 314 309 307 312 308 300 294 296 292 290 288
187 224 268 288 282 197 202 258 245 228 251 277 293 337 314 303 270 279 292 298 300 304 306 315 320 324 328 324 324 321 315 313 309 303 301 303 305 301 299 297 293 282 276 277
182 211 241 260 283 276 143 271 275 206 216 224 140 301 281 303 313 310 314 314 317 324 329 331 327 330 332 323 321 313 310 310 307 303 299 300 302 304 304 299 292 285 281 277
210 233 261 267 288 69 174 246 279 232 235 216 217 232 264 311 326 328 322 323 328 332 331 322 319 328 325 316 308 305 307 307 306 306 303 298 298 299 302 303 306 304 298 294
182 216 253 253 140 179 225 244 240 242 255 227 247 285 306 323 327 335 335 332 332 333 327 321 321 328 318 307 303 307 308 308 307 306 304 306 301 303 304 304 308 308 307 309
194 217 244 236 224 249 230 242 257 239 263 240 269 293 311 317 319 326 326 323 325 325 323 322 323 322 308 305 310 311 310 309 310 312 314 312 307 306 309 304 297 299 306 308
244 267 270 278 281 289 266 254 275 273 288 295 280 296 309 313 315 319 319 320 325 328 324 320 322 319 306 307 311 309 308 309 311 314 318 324 321 313 309 308 303 301 303 299
254 275 295 303 293 282 292 285 352 349 346 319 297 298 299 307 307 306 310 313 317 314 309 309 316 316 315 315 317 312 308 307 310 310 310 319 324 320 307 299 292 296 292 285
239 248 230 260 287 309 332 321 324 341 335 332 298 288 300 302 302 303 306 311 313 311 309 309 314 314 315 315 314 308 308 307 307 311 316 320 327 334 338 326 326 320 314 308
250 270 238 261 300 324 288 302 319 316 289 301 306 296 300 302 306 306 307 312 310 309 308 309 313 313 314 315 314 308 302 304 309 316 320 322 324 327 330 339 344 346 342 335
284 289 281 284 296 325 341 333 341 336 325 304 304 312 313 311 310 310 309 310 312 314 313 313 313 312 314 316 315 314 312 312 317 316 319 320 322 324 325 328 334 342 348 349
331 282 251 294 336 352 2 5 358 335 331 334 331 324 320 313 308 305 308 313 317 316 314 316 313 311 316 316 317 315 315 316 319 321 321 321 323 327 330 329 329 332 342 349
327 348 353 343 327 333 348 348 316 304 311 312 316 316 309 301 298 303 311 315 313 310 311 313 310 311 315 316 316 314 312 315 320 323 326 330 331 336 338 336 334 336 338 338
333 332 335 318 306 306 303 292 279 285 294 299 302 308 311 310 310 315 318 316 305 300 303 305 305 311 314 312 310 307 309 316 323 328 332 332 338 342 340 339 334 338 339 343
304 290 291 276 273 286 297 301 296 297 296 297 304 310 309 305 301 305 312 316 318 316 314 311 312 315 314 315 311 308 312 318 328 332 334 335 336 341 343 337 339 344 348 353
351 343 336 317 295 280 285 293 296 296 299 302 303 301 295 293 294 299 307 314 315 313 316 320 320 322 319 317 320 317 323 326 331 333 333 327 336 346 351 350 351 346 352 2
352 351 349 343 339 319 302 299 299 299 299 299 299 302 305 305 304 305 307 302 297 295 305 315 318 320 322 322 329 332 332 329 331 332 335 340 350 356 359 356 354 356 7 7
346 346 346 344 338 331 316 306 305 307 310 310 303 298 300 304 309 307 307 307 309 313 316 321 326 325 328 336 341 349 348 345 344 346 346 355 6 7 8 8 5 7 10 7
338 339 337 337 339 335 332 329 321 316 319 322 320 314 313 315 318 314 298 285 300 317 324 321 321 331 343 347 349 352 354 355 355 356 3 12 14 12 10 11 14 13 15 17
331 333 333 333 329 324 330 336 334 329 325 322 320 316 311 305 306 306 310 311 313 323 328 324 331 343 349 354 354 358 359 359 358 1 10 15 13 11 11 14 17 17 18 23
336 338 335 331 333 341 339 335 337 334 326 320 317 314 311 313 314 304 293 309 323 328 333 335 344 351 355 0 0 3 0 357 356 3 7 13 16 16 18 19 21 22 24 25
333 333 337 343 345 334 324 329 336 338 336 333 330 328 321 305 297 308 314 318 326 335 338 343 351 355 360 360 1 357 353 352 3 11 7 10 13 18 19 21 23 21 18 16
328 326 322 317 310 311 318 325 329 329 332 331 331 331 327 322 315 313 317 323 327 334 338 341 349 353 357 356 354 350 349 346 356 7 16 14 14 18 22 26 21 17 15 17
333 333 333 334 334 330 325 323 322 322 323 321 318 320 323 325 327 328 327 328 333 339 340 343 347 348 347 346 344 341 340 345 356 3 7 10 11 16 20 20 18 14 11 14